Tracking 29892 objects as of 21-Nov-2024
HD Live streaming from Space Station
objects crossing your sky now

STARLINK-3872

Track STARLINK-3872 now!
10-day predictions
STARLINK-3872 is classified as:


NORAD ID: 52453
Int'l Code: 2022-049C
Perigee: 545.9 km
Apogee: 547.8 km
Inclination: 53.2 °
Period: 95.4 minutes
Semi major axis: 6917 km
RCS: Unknown
Launch date: May 6, 2022
Source: United States (US)
Launch site: AIR FORCE EASTERN TEST RANGE (AFETR)
Your satellite tracking list
Your tracking list is empty




NASA's NSSDC Master Catalog

Two Line Element Set (TLE):
1 52453U 22049C   24325.22693662  .00007442  00000-0  48492-3 0  9995
2 52453  53.2168  39.0656 0001350  76.9017 283.2126 15.08858017140488
Source of the keplerian elements: AFSPC